Melton Hill Observed Data For Previous 48 Hours

Caption
Day and Hour Reservoir Elevation (behind dam)* Tailwater Elevation (below dam)* Average Hourly Discharge*
9/20/2017 2 AM EDT 794.19 741.10 3,569
9/20/2017 3 AM EDT 794.22 740.99 3,570
9/20/2017 4 AM EDT 794.24 740.95 3,570
9/20/2017 5 AM EDT 794.23 740.92 3,570
9/20/2017 6 AM EDT 794.20 740.89 3,570
9/20/2017 7 AM EDT 794.16 740.96 3,570
9/20/2017 8 AM EDT 794.10 741.08 3,564
9/20/2017 9 AM EDT 794.07 741.04 3,560
9/20/2017 10 AM EDT 794.04 741.14 3,560
9/20/2017 11 AM EDT 794.02 740.87 3,560
9/20/2017 12 PM EDT 793.97 740.99 3,560
9/20/2017 1 PM EDT 793.95 741.14 3,560
9/20/2017 2 PM EDT 793.88 741.12 3,556
9/20/2017 3 PM EDT 793.84 741.01 3,550
9/20/2017 4 PM EDT 793.77 740.99 3,550
9/20/2017 5 PM EDT 793.73 741.05 3,550
9/20/2017 6 PM EDT 793.70 741.04 3,550
9/20/2017 7 PM EDT 793.65 740.88 3,543
9/20/2017 8 PM EDT 793.61 740.82 3,540
9/20/2017 9 PM EDT 793.56 740.84 3,540
9/20/2017 10 PM EDT 793.51 740.86 3,540
9/20/2017 11 PM EDT 793.56 740.83 3,540
9/21/2017 12 AM EDT 793.68 740.84 3,540
9/21/2017 1 AM EDT 793.72 740.84 3,548
9/21/2017 2 AM EDT 793.72 740.84 3,550
9/21/2017 3 AM EDT 793.78 740.80 3,550
9/21/2017 4 AM EDT 793.86 740.77 3,550
9/21/2017 5 AM EDT 793.90 740.85 3,550
9/21/2017 6 AM EDT 793.91 740.94 3,550
9/21/2017 7 AM EDT 793.90 740.89 3,550
9/21/2017 8 AM EDT 793.87 740.75 3,550
9/21/2017 9 AM EDT 793.83 740.62 3,550
9/21/2017 10 AM EDT 793.79 740.76 3,550
9/21/2017 11 AM EDT 793.75 740.87 3,550
9/21/2017 12 PM EDT 793.71 741.01 3,550
9/21/2017 1 PM EDT 793.66 740.96 3,545
9/21/2017 2 PM EDT 793.62 740.87 3,540
9/21/2017 3 PM EDT 793.57 740.84 3,540
9/21/2017 4 PM EDT 793.51 740.79 3,540
9/21/2017 5 PM EDT 793.47 740.84 3,540
9/21/2017 6 PM EDT 793.54 740.92 3,540
9/21/2017 7 PM EDT 793.62 741.04 3,540
9/21/2017 8 PM EDT 793.60 741.02 3,540
9/21/2017 9 PM EDT 793.56 740.96 3,540
9/21/2017 10 PM EDT 793.57 740.92 3,540
9/21/2017 11 PM EDT 793.59 740.94 3,540
9/22/2017 12 AM EDT 793.59 740.98 3,540
9/22/2017 1 AM EDT 793.59 740.98 3,540
9/22/2017 2 AM EDT 793.59 740.91 3,540
9/22/2017 3 AM EDT 793.60 740.89 3,540
9/22/2017 4 AM EDT 793.60 740.89 3,540
9/22/2017 5 AM EDT 793.60 740.96 3,540
9/22/2017 6 AM EDT 793.60 741.02 3,540

Elevations are in feet above sea level. Discharges are in cubic feet per second and are reported at the end of the hour.